Total_Precipitation_Accumulation
2.39 2.66 3.54 4.52 5.29 4.15 3.10 2.49 2.10 1.85 1.50 1.11 0.90 0.94 1.31 1.86 2.25 2.39 2.13 1.87 1.20 1.08 1.29 1.93 2.35 2.21 2.08 2.06 2.05 2.14 2.16 2.10 2.11 2.19 2.19 2.11 2.30 2.43 2.45 2.44 2.37 2.31 2.19 2.18 2.18 2.16 2.19 2.01 2.07
2.05 2.86 4.17 5.20 4.55 3.24 2.82 2.22 1.91 1.61 1.21 0.90 0.77 0.73 0.91 0.77 0.72 1.21 2.22 2.14 1.18 0.94 1.14 1.68 2.35 2.25 2.18 2.22 2.26 2.31 2.27 2.06 1.97 1.96 1.92 1.96 2.16 2.39 2.55 2.62 2.48 2.48 2.39 2.25 2.09 2.01 2.14 2.05 2.10
2.36 3.32 4.63 4.76 3.35 2.64 2.65 2.02 1.48 1.07 0.79 0.84 0.85 0.74 0.86 1.04 1.14 1.62 2.09 1.50 1.08 0.99 1.11 1.76 2.44 2.24 2.18 2.24 2.39 2.35 2.21 2.13 1.99 1.93 1.93 1.96 2.17 2.41 2.57 2.54 2.49 2.55 2.52 2.38 2.25 2.13 2.24 2.21 2.19
2.66 3.82 4.20 3.57 2.70 2.08 1.82 1.56 1.18 1.01 0.71 0.49 0.66 0.87 0.80 1.07 1.27 1.51 1.46 1.06 0.84 0.88 1.02 1.59 2.35 2.22 2.13 2.17 2.39 2.27 2.11 2.16 2.05 1.96 2.03 2.15 2.42 2.66 2.67 2.59 2.67 2.59 2.55 2.40 2.37 2.28 2.31 2.27 2.23
2.97 3.81 3.78 3.34 2.50 2.14 1.61 1.28 1.06 1.04 0.83 0.55 0.55 0.89 1.05 1.42 1.39 1.36 1.27 1.06 0.87 0.88 0.95 1.31 2.04 2.12 2.08 2.14 2.25 2.18 2.21 2.27 2.11 2.01 2.07 2.23 2.42 2.59 2.71 2.69 2.74 2.72 2.73 2.61 2.48 2.40 2.27 2.19 2.20
3.40 3.46 3.57 3.30 2.71 2.38 1.82 1.33 0.97 0.90 0.76 0.60 0.59 0.90 1.28 1.71 1.59 1.56 1.36 1.24 1.12 0.99 0.92 1.09 1.70 1.90 1.95 2.14 2.13 2.12 2.15 2.12 2.04 2.07 2.13 2.20 2.30 2.44 2.52 2.56 2.63 2.65 2.66 2.67 2.53 2.40 2.23 2.16 2.06
3.22 3.14 2.85 2.41 2.56 2.67 1.91 1.19 1.10 1.04 1.01 0.85 0.61 0.96 1.37 1.82 1.68 1.44 1.44 1.46 1.52 1.36 1.17 1.17 1.29 1.43 1.75 2.13 2.13 2.17 2.18 2.00 1.91 1.92 1.97 1.99 2.05 2.18 2.24 2.31 2.42 2.46 2.53 2.50 2.37 2.27 2.25 2.23 2.10
2.54 2.64 2.42 2.33 2.55 2.70 1.64 1.04 0.89 0.88 0.93 0.60 0.52 0.87 1.14 1.38 1.50 1.48 1.44 1.49 1.45 1.37 1.31 1.24 1.24 1.27 1.59 1.77 2.02 2.25 2.28 2.11 1.89 1.81 1.79 1.92 1.90 1.94 2.07 2.09 2.37 2.53 2.54 2.47 2.38 2.31 2.22 2.27 2.22
2.16 2.52 2.61 2.54 2.43 2.14 1.29 0.97 0.78 0.58 0.59 0.53 0.42 0.63 0.82 0.85 1.13 1.37 1.38 1.41 1.38 1.29 1.32 1.25 1.24 1.35 1.64 1.78 1.82 2.11 2.25 2.21 1.78 1.52 1.56 1.56 1.51 1.61 1.74 1.81 2.34 2.54 2.75 2.72 2.56 2.37 2.24 2.14 2.09
2.22 2.50 2.33 1.87 1.64 1.36 1.03 0.88 0.73 0.76 0.85 0.73 0.56 0.64 0.78 0.86 0.99 1.24 1.30 1.20 1.14 1.12 1.14 1.14 1.14 1.20 1.37 1.52 1.89 2.05 1.84 1.90 1.55 1.45 1.41 1.41 1.49 1.56 1.39 1.60 2.12 2.35 2.57 2.66 2.50 2.38 2.13 1.84 1.65
1.87 2.05 1.65 1.39 1.18 0.95 0.89 0.84 0.64 0.79 1.00 0.78 0.58 0.64 0.78 0.90 1.03 1.12 1.18 1.08 0.98 0.98 0.91 0.86 0.91 0.93 1.06 1.27 1.42 1.65 1.87 1.86 1.79 1.70 1.59 1.60 1.48 1.35 1.34 1.49 1.68 1.90 2.08 2.13 2.16 2.10 1.83 1.63 1.56
1.61 1.54 1.33 1.20 0.88 0.92 0.93 0.80 0.72 0.69 0.74 0.54 0.48 0.55 0.73 0.92 1.06 1.05 1.07 1.06 0.98 1.02 1.02 0.85 0.77 0.80 0.87 0.98 1.12 1.32 1.52 1.61 1.61 1.51 1.38 1.59 1.56 1.39 1.41 1.59 1.71 1.77 1.94 2.20 2.26 2.18 1.92 1.69 1.52
1.49 1.55 1.25 1.03 0.90 0.94 0.88 0.80 0.70 0.70 0.60 0.47 0.46 0.61 0.84 1.04 1.10 1.09 1.03 1.02 1.02 1.03 1.10 0.97 0.78 0.76 0.85 0.91 0.94 0.99 1.23 1.35 1.37 1.48 1.36 1.39 1.42 1.32 1.28 1.37 1.63 1.73 1.81 2.06 2.17 2.04 1.97 1.93 1.82
1.31 1.26 1.21 1.05 0.96 0.98 0.99 0.81 0.70 0.85 0.73 0.60 0.65 0.78 0.94 1.06 1.07 1.02 0.94 0.91 0.90 0.91 0.97 0.94 0.84 0.83 0.86 0.83 0.77 0.78 0.84 1.05 1.09 1.09 1.00 1.16 1.33 1.32 1.35 1.30 1.47 1.75 1.85 1.92 1.94 1.89 1.94 1.93 1.87
1.08 1.18 1.34 1.24 1.16 1.13 1.02 1.12 0.86 0.88 0.85 0.73 0.72 0.79 1.00 0.97 0.96 0.93 0.84 0.76 0.72 0.79 0.82 0.87 0.89 0.89 0.88 0.89 0.86 0.80 0.81 0.90 1.01 1.03 1.00 1.11 1.22 1.32 1.32 1.24 1.35 1.61 1.83 1.89 1.89 1.86 1.95 1.87 1.72
1.26 1.56 1.83 1.51 1.26 1.24 1.19 1.40 0.98 0.94 0.88 0.78 0.75 0.74 0.84 0.76 0.77 0.79 0.73 0.66 0.61 0.62 0.68 0.75 0.76 0.83 0.87 0.90 0.95 0.91 0.93 0.94 0.95 1.00 0.97 0.99 1.14 1.30 1.42 1.37 1.32 1.52 1.78 2.02 2.18 2.06 2.03 1.99 1.87
1.61 1.71 1.66 1.56 1.21 1.22 1.18 1.27 1.06 0.89 0.84 0.74 0.71 0.72 0.70 0.64 0.61 0.64 0.63 0.58 0.50 0.50 0.51 0.57 0.65 0.75 0.82 0.88 0.99 0.96 0.98 1.13 1.17 1.07 0.98 1.03 1.15 1.23 1.47 1.61 1.52 1.59 1.81 1.94 2.03 2.08 1.99 1.98 1.93
1.32 1.30 1.32 1.41 1.16 1.07 1.05 1.00 1.01 0.86 0.71 0.67 0.66 0.63 0.60 0.57 0.51 0.53 0.54 0.55 0.50 0.48 0.47 0.50 0.58 0.64 0.66 0.80 0.95 1.06 1.03 1.11 1.32 1.35 1.34 1.38 1.43 1.44 1.59 1.73 1.76 1.79 1.91 1.93 2.12 2.37 2.22 2.02 1.97
0.95 0.98 1.03 0.97 0.84 0.94 0.94 0.90 0.96 0.89 0.75 0.63 0.61 0.65 0.59 0.52 0.53 0.48 0.45 0.52 0.52 0.47 0.44 0.50 0.57 0.61 0.62 0.73 0.87 0.99 1.10 1.24 1.43 1.50 1.54 1.67 1.71 1.72 1.85 1.95 2.02 1.98 1.91 2.00 2.20 2.63 2.60 2.30 2.06
0.88 0.90 0.93 0.84 0.73 0.78 0.86 0.91 0.91 0.84 0.76 0.66 0.59 0.52 0.51 0.45 0.43 0.39 0.39 0.41 0.43 0.44 0.43 0.45 0.57 0.66 0.70 0.76 0.91 1.10 1.35 1.41 1.56 1.77 1.77 1.76 1.80 1.85 1.92 2.12 2.23 2.19 2.19 2.27 2.34 2.65 2.88 2.65 2.45
0.85 0.81 0.76 0.79 0.76 0.77 0.84 1.06 0.96 0.87 0.73 0.63 0.56 0.45 0.38 0.39 0.37 0.30 0.33 0.38 0.39 0.42 0.49 0.53 0.64 0.83 1.00 1.08 1.32 1.65 1.91 1.97 1.91 1.95 2.01 2.00 2.00 2.06 2.01 2.08 2.27 2.29 2.28 2.36 2.57 2.88 3.25 3.27 2.96
0.87 0.62 0.55 0.66 0.85 0.99 0.82 1.19 0.95 0.84 0.75 0.59 0.53 0.47 0.38 0.41 0.45 0.36 0.35 0.39 0.38 0.44 0.58 0.76 0.97 1.25 1.47 1.58 1.76 2.03 2.18 2.23 2.12 2.10 2.12 2.16 2.08 2.01 2.01 2.06 2.21 2.38 2.52 2.65 2.71 2.68 3.14 3.52 3.36
0.69 0.56 0.56 0.66 0.81 0.86 0.71 0.89 0.85 0.69 0.76 0.65 0.59 0.54 0.48 0.49 0.48 0.49 0.48 0.54 0.56 0.67 0.89 1.24 1.52 1.72 1.85 1.89 1.93 2.18 2.33 2.50 2.50 2.37 2.23 2.18 2.19 2.15 2.05 2.02 2.04 2.08 2.20 2.36 2.51 2.57 2.85 3.13 3.34
0.58 0.66 0.72 0.75 0.88 1.03 0.68 0.70 0.85 0.69 0.65 0.67 0.66 0.58 0.53 0.52 0.54 0.65 0.79 0.92 0.99 1.09 1.32 1.56 1.73 1.88 1.85 1.83 1.84 1.98 2.18 2.35 2.37 2.39 2.35 2.27 2.20 2.13 1.99 1.90 1.94 1.96 1.96 2.10 2.23 2.36 2.65 2.88 3.05
0.67 0.90 1.19 1.21 1.18 0.98 0.56 0.68 0.72 0.51 0.47 0.54 0.61 0.60 0.56 0.53 0.63 0.86 1.04 1.18 1.28 1.39 1.51 1.58 1.56 1.65 1.68 1.65 1.67 1.73 1.80 1.84 1.89 2.01 1.94 1.83 1.75 1.70 1.66 1.57 1.60 1.71 1.78 1.93 2.01 1.98 2.07 2.29 2.53
0.62 0.71 1.07 1.22 1.06 0.87 0.65 0.84 0.74 0.54 0.52 0.46 0.50 0.59 0.66 0.77 0.91 1.04 1.16 1.27 1.32 1.46 1.53 1.49 1.45 1.44 1.38 1.34 1.40 1.44 1.46 1.53 1.52 1.50 1.48 1.40 1.36 1.35 1.31 1.30 1.30 1.35 1.41 1.60 1.82 1.84 1.87 1.96 2.08
0.54 0.55 0.62 0.84 0.80 0.83 0.74 0.83 0.74 0.54 0.52 0.47 0.48 0.58 0.72 0.90 1.15 1.33 1.34 1.26 1.22 1.28 1.37 1.34 1.29 1.24 1.15 1.08 1.14 1.20 1.31 1.30 1.24 1.18 1.12 1.13 1.05 1.07 1.05 1.10 1.19 1.25 1.24 1.33 1.45 1.65 1.72 1.81 1.90
0.43 0.49 0.65 0.95 1.11 1.11 0.87 0.93 0.89 0.67 0.61 0.57 0.60 0.70 0.87 1.03 1.26 1.53 1.64 1.52 1.29 1.12 1.16 1.13 1.12 1.17 1.17 1.13 1.13 1.12 1.06 0.99 0.95 0.95 0.87 0.86 0.92 0.94 0.96 0.96 1.01 1.09 1.12 1.22 1.33 1.35 1.46 1.56 1.75
0.44 0.53 0.67 0.88 0.89 1.17 1.40 1.33 0.97 0.83 0.76 0.74 0.79 0.85 0.93 1.18 1.47 1.59 1.62 1.49 1.35 1.08 1.02 1.01 1.01 1.07 1.16 1.10 1.12 1.10 0.98 0.86 0.81 0.76 0.70 0.71 0.76 0.80 0.80 0.85 0.96 0.98 1.01 1.06 1.07 1.10 1.16 1.23 1.35
0.39 0.49 0.69 1.06 1.04 0.98 1.22 1.23 0.78 0.81 0.92 0.85 0.90 0.98 1.01 1.11 1.17 1.17 1.27 1.30 1.23 1.09 1.02 1.08 1.13 1.15 1.12 1.08 1.05 1.02 0.95 0.86 0.84 0.77 0.68 0.71 0.76 0.77 0.77 0.84 0.90 0.91 0.97 1.00 0.98 0.99 1.06 1.17 1.25